TimeEST,TemperatureF,Dew PointF,Humidity,Sea Level PressureIn,VisibilityMPH,Wind Direction,Wind SpeedMPH,Gust SpeedMPH,PrecipitationIn,Events,Conditions,WindDirDegrees,DateUTC
12:53 AM,50.0,46.4,87,30.25,10.0,Calm,Calm,-,N/A,,Clear,0,2012-12-04 05:53:00
1:53 AM,48.0,46.0,93,30.25,9.0,Calm,Calm,-,N/A,,Clear,0,2012-12-04 06:53:00
2:53 AM,46.9,46.0,97,30.25,10.0,Calm,Calm,-,N/A,,Clear,0,2012-12-04 07:53:00
3:53 AM,45.0,44.1,97,30.26,10.0,Calm,Calm,-,N/A,,Clear,0,2012-12-04 08:53:00
4:53 AM,46.0,45.0,96,30.26,10.0,Calm,Calm,-,N/A,,Clear,0,2012-12-04 09:53:00
5:53 AM,42.8,42.8,100,30.28,10.0,Calm,Calm,-,N/A,,Clear,0,2012-12-04 10:53:00
6:53 AM,42.1,41.0,96,30.29,9.0,Calm,Calm,-,N/A,,Clear,0,2012-12-04 11:53:00
7:53 AM,45.0,44.1,97,30.31,10.0,Calm,Calm,-,N/A,,Clear,0,2012-12-04 12:53:00
8:53 AM,50.0,46.9,89,30.31,10.0,Calm,Calm,-,N/A,,Clear,0,2012-12-04 13:53:00
9:53 AM,57.9,51.1,78,30.32,10.0,Calm,Calm,-,N/A,,Clear,0,2012-12-04 14:53:00
10:53 AM,64.9,51.1,61,30.32,10.0,Variable,3.5,-,N/A,,Partly Cloudy,0,2012-12-04 15:53:00
11:53 AM,70.0,52.0,53,30.29,10.0,Variable,4.6,-,N/A,,Scattered Clouds,0,2012-12-04 16:53:00
12:53 PM,72.0,51.1,48,30.25,10.0,West,6.9,-,N/A,,Scattered Clouds,270,2012-12-04 17:53:00
1:53 PM,72.0,50.0,46,30.23,10.0,WSW,6.9,-,N/A,,Mostly Cloudy,240,2012-12-04 18:53:00
2:53 PM,72.0,50.0,46,30.22,10.0,SSW,8.1,-,N/A,,Overcast,200,2012-12-04 19:53:00
3:53 PM,72.0,50.0,46,30.21,10.0,SSW,9.2,-,N/A,,Overcast,200,2012-12-04 20:53:00
4:53 PM,71.1,51.1,49,30.20,10.0,SSW,4.6,-,N/A,,Overcast,210,2012-12-04 21:53:00
5:53 PM,69.1,52.0,54,30.21,10.0,South,3.5,-,N/A,,Overcast,180,2012-12-04 22:53:00
6:53 PM,64.9,52.0,63,30.22,10.0,Calm,Calm,-,N/A,,Scattered Clouds,0,2012-12-04 23:53:00
7:53 PM,61.0,52.0,72,30.23,10.0,Calm,Calm,-,N/A,,Clear,0,2012-12-05 00:53:00
8:53 PM,57.9,52.0,81,30.23,10.0,Calm,Calm,-,N/A,,Clear,0,2012-12-05 01:53:00
9:53 PM,57.0,51.1,81,30.22,10.0,Calm,Calm,-,N/A,,Clear,0,2012-12-05 02:53:00
10:53 PM,55.0,51.1,86,30.22,10.0,Calm,Calm,-,N/A,,Mostly Cloudy,0,2012-12-05 03:53:00
11:53 PM,54.0,50.0,86,30.21,10.0,Calm,Calm,-,N/A,,Overcast,0,2012-12-05 04:53:00